This demonstration page uses our WeatherBlox Daily Observations layout. Learn more.

Left ArrowRight Arrow

Hourly Observations for September 26, 2019

Temp ( °F °C ) Dew Point ( °F °C ) Humidity (%) Winds ( mph kmh ) Pressure ( in mb ) Visibility ( mi km ) Precip ( " mm )
12:59 am 00:59 Mostly Clear 70 21.1 63 17.2 79 79 S 6 9 29.92 1013 10 16 0.00 0.00
1:59 am 01:59 Mostly Clear 69 20.6 63 17.2 81 81 S 6 9 29.92 1013 10 16 0.00 0.00
2:59 am 02:59 Mostly Clear 70 21.1 63 17.2 79 79 S 6 9 29.90 1012 10 16 0.00 0.00
3:59 am 03:59 Mostly Clear 70 21.1 63 17.2 79 79 S 6 9 29.88 1012 10 16 0.00 0.00
4:59 am 04:59 Partly Cloudy 71 21.7 65 18.3 81 81 VRB 6 9 29.88 1012 10 16 0.00 0.00
5:59 am 05:59 Partly Cloudy 71 21.7 66 18.9 84 84 S 8 13 29.87 1011 10 16 0.00 0.00
6:59 am 06:59 Mostly Sunny 70 21.1 67 19.4 90 90 S 6 9 29.87 1011 10 16 0.00 0.00
7:59 am 07:59 Mostly Sunny 72 22.2 69 20.6 91 91 S 8 13 29.87 1012 10 16 0.00 0.00
8:59 am 08:59 Sunny 75 23.9 71 21.7 88 88 SW 13 20 29.88 1012 10 16 0.00 0.00
9:59 am 09:59 Mostly Sunny 78 25.6 71 21.7 79 79 SW 10 17 29.88 1012 10 16 0.00 0.00
10:59 am 10:59 Mostly Sunny 82 27.8 72 22.2 72 72 SW 9 15 29.87 1011 10 16 0.00 0.00
11:59 am 11:59 Mostly Sunny 84 28.9 73 22.8 70 70 VRB 6 9 29.86 1011 10 16 0.00 0.00
12:59 pm 12:59 Sunny 86 30 72 22.2 63 63 VRB 6 9 29.84 1011 10 16 0.00 0.00
1:59 pm 13:59 Mostly Sunny 89 31.7 70 21.1 53 53 WSW 12 19 29.82 1010 10 16 0.00 0.00
2:59 pm 14:59 Mostly Sunny 90 32.2 67 19.4 47 47 WSW 10 17 29.80 1009 10 16 0.00 0.00
3:59 pm 15:59 Partly Cloudy 90 32.2 65 18.3 44 44 SW 12 19 29.78 1009 10 16 0.00 0.00
4:59 pm 16:59 Partly Cloudy 89 31.7 66 18.9 47 47 SSW 10 17 29.78 1009 10 16 0.00 0.00
5:59 pm 17:59 Partly Cloudy 87 30.6 69 20.6 55 55 SSW 8 13 29.80 1009 10 16 0.00 0.00
6:59 pm 18:59 Mostly Cloudy 84 28.9 69 20.6 61 61 SSW 9 15 29.81 1010 10 16 0.00 0.00
7:59 pm 19:59 Mostly Cloudy 83 28.3 69 20.6 63 63 SSW 7 11 29.83 1010 10 16 0.00 0.00
8:59 pm 20:59 Mostly Cloudy 83 28.3 70 21.1 65 65 WSW 8 13 29.87 1011 10 16 0.00 0.00
9:59 pm 21:59 Mostly Cloudy 80 26.7 70 21.1 71 71 NNW 9 15 29.90 1013 10 16 0.00 0.00
10:59 pm 22:59 Mostly Cloudy 79 26.1 68 20 69 69 N 6 9 29.92 1013 10 16 0.00 0.00
11:59 pm 23:59 Mostly Cloudy 79 26.1 70 21.1 74 74 NNE 9 15 29.93 1014 10 16 0.00 0.00

Powered by AerisWeather